Location: Dompnac
(44.5644°N, 4.1026°E)
Time: 11:16:16
(UTC+00:00)

MetOp-A - Pass Details

Date: 19 September 2020
Orbit: 820 x 821 km, 98.5° (Epoch: 30 October)

Event Time Altitude Azimuth Distance (km) Brightness Sun altitude
Exits shadow 19:42:57 25° 168° (SSE) 1,619 5.3 -21.0°
Maximum altitude 19:46:13 85° 255° (WSW) 831 4.1 -21.6°
Drops below altitude 10° 19:51:37 10° 345° (NNW) 2,428 7.1 -22.4°
Sets 19:53:59 0° 346° (NNW) 3,365 7.9 -22.8°
